Погода в Эсбьерге

Дания     55°28′46″N   8°27′56″E
темп.,
°C
ветер,
м/с
пор.,
м/с
влажн.,
%
обл.,
%
осадки,
мм/ч
давл.,
гПа
погр.,
м
18 мая, вт
вт1823:00+8з339197 0.0 100555
02:00+8зюз4693100 0.0 1006153
05:00+8з469550 0.0 1006199
08:00+10зсз4689100 0.3 1008394
11:00+11зсз447594 0.5 1009745
14:00+12сз556458 0.6 1010971
17:00+11зсз666810 0.0 1011855
20:00+10зсз45775 0.0 1012401
19 мая, ср
ср1923:00+7з34890 0.0 101271
02:00+8зюз34915 0.0 101393
05:00+7з35905 0.0 1012122
08:00+10зюз34805 0.0 1013430
11:00+11зюз568023 0.3 1013740
14:00+11з67759 0.4 1014854
17:00+11з56769 0.1 1014802
20:00+10зсз56810 0.1 1015566
20 мая, чт
чт2023:00+7зсз47890 0.0 1016250
02:00+7зсз697942 0.0 1016369
05:00+7зсз7117598 0.0 1017590
08:00+9зсз8108136 0.0 1017924
11:00+10з897410 0.1 10181062
14:00+10з79727 0.2 10191179
17:00+10з79725 0.1 1019969
20:00+9зюз58785 0.1 1018682
21 мая, пт
пт2123:00+8юз4792100 0.0 1017233
02:00+9ююз6992100 0.0 1014377
05:00+9ююз71087100 0.1 1011567
08:00+9ю91393100 0.5 1009868
11:00+10ююз81295100 0.6 1007665
14:00+10ююз81195100 2.9 1005622
17:00+10ю71195100 1.6 1003740
20:00+10ююз611915 2.0 1002731
22 мая, сб
сб2223:00+9ю6119012 0.5 1000311
02:00+10ююз8148499 1.6 998607
05:00+9ююз81386100 1.1 996650
08:00+9ю111589100 1.8 996925
11:00+9ююз121791100 1.1 996977
14:00+10ююз111590100 2.4 9961024
17:00+11юз12168436 0.8 9971272
20:00+9юз111686100 1.3 9971243